Location: Habighorst
(52.7089°N, 10.2278°E)
Time: 15:10:47
(UTC+00:00)

Cosmos 1805 Rocket - Visible Passes

Search period start: 19 April 2026 00:00
Search period end: 29 April 2026 00:00
Orbit: 600 x 621 km, 82.5° (Epoch: 19 April)

Date Brightness Start Highest point End Pass type
(mag) Time Alt. Az. Time Alt. Az. Time Alt. Az.
19 Apr 7.2 01:48:22 10° NE 01:48:45 10° NE 01:49:09 10° ENE visible
19 Apr 4.2 03:23:04 10° N 03:27:28 61° ENE 03:31:48 10° SSE visible
20 Apr 6.7 02:01:13 10° NNE 02:03:48 15° ENE 02:06:23 10° E visible
21 Apr 6.2 02:15:18 10° NNE 02:18:47 22° ENE 02:22:13 10° ESE visible
22 Apr 5.5 02:29:39 10° N 02:33:40 33° ENE 02:37:38 10° SE visible
23 Apr 4.5 02:44:10 10° N 02:48:29 51° ENE 02:52:45 10° SSE visible
24 Apr 6.6 01:22:39 10° NNE 01:24:44 13° ENE 01:26:47 10° E visible
24 Apr 3.7 02:58:47 10° N 03:03:13 82° E 03:07:34 10° SSE visible
25 Apr 6.3 01:36:33 10° NNE 01:39:43 19° ENE 01:42:52 10° ESE visible
25 Apr 3.6 03:13:30 10° NNW 03:17:52 63° W 03:22:10 10° S visible
26 Apr 5.6 01:50:48 10° N 01:54:38 28° ENE 01:58:25 10° SE visible
27 Apr 4.8 02:05:15 10° N 02:09:28 43° ENE 02:13:37 10° SE visible
28 Apr 6.7 00:44:17 10° NE 00:45:37 11° NE 00:46:55 10° ENE visible
28 Apr 3.9 02:19:50 10° N 02:24:14 69° ENE 02:28:33 10° SSE visible
